MSC2107 LZKZ-HEMA

Flight info

Callsign MSC2107
Flight time 3h 34m
Altitude 35000
Route KEKED DCT IZDUW DCT AGNEP DCT OSTOV N127 NIKTI UN127 LMO UL618 MES UN139 KUMBI L612 BLT A16 CVO L315 SOBEL V730 SIBRI
Aircraft A320/M-SDE3FGHIRWY/LB1

Departure

Time 2026-04-26 09:49
Airport Košice International Airport (LZKZ)

Arrival

Time 2026-04-26 13:24
Airport Marsa Alam International Airport (HEMA)
Time Latitude Longitude Altitude Speed Heading
2026-04-26 09:23 48.67330 21.23847 757 ft 0 kts 233°
2026-04-26 09:42 48.67327 21.23843 730 ft 1 kts 226°
2026-04-26 09:42 48.67318 21.23841 754 ft 2 kts 187°
2026-04-26 09:42 48.67311 21.23849 753 ft 2 kts 142°
2026-04-26 09:42 48.67306 21.23875 754 ft 3 kts 92°
2026-04-26 09:43 48.67308 21.23900 757 ft 2 kts 91°
2026-04-26 09:43 48.67306 21.23913 755 ft 3 kts 100°
2026-04-26 09:43 48.67295 21.23988 757 ft 11 kts 103°
2026-04-26 09:43 48.67271 21.24143 757 ft 19 kts 103°
2026-04-26 09:44 48.67236 21.24363 756 ft 22 kts 110°
2026-04-26 09:44 48.67136 21.24408 759 ft 16 kts 192°
2026-04-26 09:44 48.67017 21.24367 760 ft 19 kts 193°
2026-04-26 09:44 48.66879 21.24318 759 ft 22 kts 193°
2026-04-26 09:45 48.66722 21.24264 760 ft 25 kts 192°
2026-04-26 09:45 48.66543 21.24201 757 ft 29 kts 194°
2026-04-26 09:45 48.66337 21.24127 753 ft 32 kts 193°
2026-04-26 09:45 48.66112 21.24049 757 ft 35 kts 192°
2026-04-26 09:46 48.65868 21.23966 758 ft 37 kts 193°
2026-04-26 09:46 48.65611 21.23875 755 ft 39 kts 194°
2026-04-26 09:46 48.65345 21.23785 757 ft 39 kts 194°
2026-04-26 09:46 48.65130 21.23711 755 ft 20 kts 192°
2026-04-26 09:47 48.65014 21.23646 758 ft 16 kts 203°
2026-04-26 09:47 48.64971 21.23674 757 ft 6 kts 51°
2026-04-26 09:47 48.65001 21.23673 758 ft 4 kts 343°
2026-04-26 09:47 48.65029 21.23674 757 ft 4 kts
2026-04-26 09:48 48.65061 21.23685 756 ft 7 kts 12°
2026-04-26 09:48 48.65225 21.23740 755 ft 54 kts 11°
2026-04-26 09:48 48.65803 21.23936 757 ft 113 kts 13°
2026-04-26 09:48 48.66386 21.24126 760 ft 144 kts 13°
2026-04-26 09:49 48.67405 21.24481 1200 ft 150 kts
2026-04-26 09:49 48.68781 21.24906 2093 ft 156 kts
2026-04-26 09:49 48.69833 21.25245 2829 ft 150 kts 11°
2026-04-26 09:49 48.70820 21.25644 3482 ft 148 kts
2026-04-26 09:50 48.71862 21.26026 3812 ft 161 kts
2026-04-26 09:50 48.73009 21.26434 4129 ft 177 kts
2026-04-26 09:50 48.73848 21.26675 4363 ft 186 kts
2026-04-26 09:50 48.75140 21.26405 4852 ft 192 kts 338°
2026-04-26 09:51 48.76246 21.25334 5540 ft 195 kts 317°
2026-04-26 09:51 48.76988 21.23589 6214 ft 204 kts 294°
2026-04-26 09:51 48.77162 21.21411 6881 ft 217 kts 269°
2026-04-26 09:51 48.76612 21.19214 7576 ft 234 kts 241°
2026-04-26 09:52 48.75323 21.17591 8224 ft 254 kts 208°
2026-04-26 09:52 48.71797 21.18450 9314 ft 283 kts 136°
2026-04-26 09:52 48.70396 21.20606 9799 ft 292 kts 129°
2026-04-26 09:53 48.69086 21.22996 10333 ft 297 kts 123°
2026-04-26 09:53 48.67738 21.25406 10829 ft 305 kts 144°
2026-04-26 09:53 48.65828 21.26806 11208 ft 310 kts 171°
2026-04-26 09:53 48.63674 21.27350 11518 ft 320 kts 181°
2026-04-26 09:54 48.61405 21.27564 11813 ft 334 kts 184°
2026-04-26 09:54 48.59022 21.27757 12088 ft 352 kts 182°
2026-04-26 09:54 48.56518 21.28081 12381 ft 370 kts 180°
2026-04-26 09:54 48.53904 21.28577 12662 ft 386 kts 177°
2026-04-26 09:55 48.51249 21.29522 13162 ft 400 kts 163°
2026-04-26 09:55 48.48634 21.31055 13759 ft 406 kts 163°
2026-04-26 09:55 48.45981 21.32588 14286 ft 411 kts 163°
2026-04-26 09:55 48.43297 21.34102 14786 ft 414 kts 163°
2026-04-26 09:56 48.40575 21.35603 15307 ft 418 kts 164°
2026-04-26 09:56 48.37830 21.37093 15827 ft 421 kts 164°
2026-04-26 09:56 48.35058 21.38588 16359 ft 425 kts 165°
2026-04-26 09:56 48.32268 21.40096 16862 ft 428 kts 165°
2026-04-26 09:57 48.29491 21.41602 17379 ft 432 kts 164°
2026-04-26 09:57 48.26654 21.43143 17888 ft 435 kts 164°
2026-04-26 09:57 48.23797 21.44695 18375 ft 439 kts 164°
2026-04-26 09:57 48.20915 21.46258 18810 ft 442 kts 164°
2026-04-26 09:58 48.18010 21.47833 19263 ft 445 kts 164°
2026-04-26 09:58 48.15086 21.49419 19720 ft 448 kts 164°
2026-04-26 09:58 48.12144 21.51009 20171 ft 451 kts 164°
2026-04-26 09:58 48.09187 21.52603 20630 ft 454 kts 164°
2026-04-26 09:59 48.06205 21.54207 21077 ft 457 kts 164°
2026-04-26 09:59 48.03207 21.55821 21528 ft 459 kts 164°
2026-04-26 09:59 48.00193 21.57445 21978 ft 462 kts 164°
2026-04-26 09:59 47.97157 21.59080 22408 ft 465 kts 164°
2026-04-26 10:00 47.94109 21.60721 22842 ft 468 kts 164°
2026-04-26 10:00 47.91038 21.62363 23256 ft 470 kts 164°
2026-04-26 10:00 47.87948 21.64010 23653 ft 473 kts 164°
2026-04-26 10:00 47.84840 21.65667 23995 ft 475 kts 164°
2026-04-26 10:01 47.81726 21.67324 24347 ft 477 kts 164°
2026-04-26 10:01 47.78600 21.68990 24697 ft 478 kts 164°
2026-04-26 10:01 47.75507 21.70643 25030 ft 479 kts 164°
2026-04-26 10:01 47.72367 21.72320 25352 ft 481 kts 164°
2026-04-26 10:02 47.69214 21.74000 25677 ft 482 kts 164°
2026-04-26 10:02 47.66054 21.75677 25995 ft 483 kts 164°
2026-04-26 10:02 47.62882 21.77357 26297 ft 485 kts 164°
2026-04-26 10:02 47.59701 21.79039 26613 ft 486 kts 164°
2026-04-26 10:03 47.56516 21.80721 26915 ft 487 kts 164°
2026-04-26 10:03 47.53315 21.82405 27245 ft 488 kts 164°
2026-04-26 10:03 47.50111 21.84088 27548 ft 489 kts 164°
2026-04-26 10:03 47.46894 21.85776 27838 ft 491 kts 164°
2026-04-26 10:04 47.43676 21.87461 28120 ft 492 kts 164°
2026-04-26 10:04 47.40445 21.89153 28398 ft 493 kts 164°
2026-04-26 10:04 47.37204 21.90857 28666 ft 495 kts 164°
2026-04-26 10:04 47.33954 21.92565 28918 ft 496 kts 163°
2026-04-26 10:05 47.30712 21.94319 29154 ft 498 kts 163°
2026-04-26 10:05 47.27464 21.96147 29389 ft 500 kts 162°
2026-04-26 10:05 47.24218 21.98017 29624 ft 502 kts 161°
2026-04-26 10:05 47.20969 21.99903 29852 ft 503 kts 161°
2026-04-26 10:06 47.17709 22.01786 30066 ft 504 kts 162°
2026-04-26 10:06 47.14431 22.03660 30255 ft 506 kts 162°
2026-04-26 10:06 47.11144 22.05523 30448 ft 507 kts 162°
2026-04-26 10:06 47.07895 22.07349 30626 ft 507 kts 162°
2026-04-26 10:07 47.04604 22.09191 30888 ft 506 kts 162°
2026-04-26 10:07 47.01317 22.11023 31169 ft 504 kts 162°
2026-04-26 10:07 46.98042 22.12845 31444 ft 503 kts 162°
2026-04-26 10:07 46.94780 22.14664 31712 ft 501 kts 162°
2026-04-26 10:08 46.91531 22.16475 31986 ft 500 kts 162°
2026-04-26 10:08 46.88287 22.18284 32268 ft 498 kts 162°
2026-04-26 10:08 46.85055 22.20086 32547 ft 496 kts 162°
2026-04-26 10:08 46.81837 22.21884 32819 ft 494 kts 162°
2026-04-26 10:09 46.78632 22.23673 33085 ft 493 kts 162°
2026-04-26 10:09 46.75436 22.25447 33364 ft 490 kts 162°
2026-04-26 10:09 46.72255 22.27209 33660 ft 488 kts 162°
2026-04-26 10:09 46.69087 22.28963 33941 ft 486 kts 162°
2026-04-26 10:10 46.65939 22.30700 34185 ft 483 kts 162°
2026-04-26 10:10 46.62797 22.32431 34437 ft 481 kts 162°
2026-04-26 10:10 46.59672 22.34150 34670 ft 479 kts 162°
2026-04-26 10:10 46.56560 22.35863 34880 ft 477 kts 162°
2026-04-26 10:11 46.50397 22.39255 34986 ft 470 kts 162°
2026-04-26 10:11 46.44334 22.42587 34986 ft 469 kts 162°
2026-04-26 10:12 46.38240 22.45921 34983 ft 468 kts 161°
2026-04-26 10:12 46.32149 22.49241 34982 ft 467 kts 162°
2026-04-26 10:13 46.26061 22.52554 34977 ft 467 kts 161°
2026-04-26 10:13 46.19978 22.55863 34976 ft 467 kts 161°
2026-04-26 10:14 46.13884 22.59165 34974 ft 468 kts 161°
2026-04-26 10:14 46.07791 22.62462 34975 ft 468 kts 161°
2026-04-26 10:15 46.01694 22.65753 34985 ft 468 kts 161°
2026-04-26 10:15 45.95627 22.69016 34998 ft 468 kts 161°
2026-04-26 10:16 45.89540 22.72288 35002 ft 467 kts 161°
2026-04-26 10:16 45.83452 22.75550 34996 ft 467 kts 161°
2026-04-26 10:17 45.77365 22.78797 34991 ft 467 kts 161°
2026-04-26 10:17 45.71278 22.82040 34995 ft 466 kts 161°
2026-04-26 10:18 45.65199 22.85270 34994 ft 466 kts 161°
2026-04-26 10:18 45.59122 22.88499 34997 ft 466 kts 161°
2026-04-26 10:19 45.53057 22.91720 35000 ft 465 kts 161°
2026-04-26 10:19 45.46985 22.94930 34996 ft 466 kts 161°
2026-04-26 10:20 45.41926 22.97580 34988 ft 466 kts 161°
2026-04-26 10:20 45.34785 23.01270 34984 ft 468 kts 161°
2026-04-26 10:21 45.28658 23.04434 34987 ft 469 kts 161°
2026-04-26 10:21 45.22571 23.07575 34989 ft 468 kts 161°
2026-04-26 10:22 45.16413 23.10749 34984 ft 467 kts 161°
2026-04-26 10:22 45.10350 23.13876 34984 ft 466 kts 161°
2026-04-26 10:23 45.04258 23.16993 34978 ft 465 kts 161°
2026-04-26 10:23 44.98177 23.20103 34976 ft 464 kts 161°
2026-04-26 10:24 44.92103 23.23197 34968 ft 464 kts 161°
2026-04-26 10:24 44.86032 23.26287 34964 ft 464 kts 161°
2026-04-26 10:25 44.79960 23.29380 34965 ft 464 kts 161°
2026-04-26 10:25 44.73889 23.32461 34964 ft 464 kts 161°
2026-04-26 10:26 44.67808 23.35534 34958 ft 464 kts 161°
2026-04-26 10:26 44.61728 23.38596 34965 ft 464 kts 161°
2026-04-26 10:27 44.55682 23.41631 34966 ft 465 kts 161°
2026-04-26 10:27 44.49598 23.44682 34970 ft 464 kts 161°
2026-04-26 10:28 44.43513 23.47733 34971 ft 465 kts 161°
2026-04-26 10:28 44.37423 23.50782 34974 ft 465 kts 161°
2026-04-26 10:29 44.31335 23.53825 34968 ft 465 kts 161°
2026-04-26 10:29 44.25244 23.56864 34970 ft 465 kts 161°
2026-04-26 10:30 44.19152 23.59893 34971 ft 465 kts 161°
2026-04-26 10:30 44.13059 23.62909 34977 ft 465 kts 161°
2026-04-26 10:31 44.06963 23.65920 34983 ft 465 kts 161°
2026-04-26 10:31 44.00871 23.68928 34992 ft 465 kts 161°
2026-04-26 10:32 43.94779 23.71936 34997 ft 464 kts 161°
2026-04-26 10:32 43.88690 23.74927 35001 ft 464 kts 161°
2026-04-26 10:33 43.82636 23.77886 35000 ft 464 kts 161°
2026-04-26 10:33 43.76396 23.79936 35004 ft 460 kts 178°
2026-04-26 10:34 43.70004 23.80106 34997 ft 459 kts 182°
2026-04-26 10:34 43.63620 23.80177 35016 ft 459 kts 182°
2026-04-26 10:35 43.57240 23.80253 35017 ft 458 kts 182°
2026-04-26 10:35 43.50862 23.80343 35016 ft 458 kts 182°
2026-04-26 10:36 43.44487 23.80429 35019 ft 458 kts 182°
2026-04-26 10:36 43.38119 23.80505 35022 ft 458 kts 182°
2026-04-26 10:37 43.31744 23.80574 35027 ft 458 kts 182°
2026-04-26 10:37 43.25377 23.80643 35024 ft 458 kts 182°
2026-04-26 10:38 43.19011 23.80722 35029 ft 457 kts 182°
2026-04-26 10:38 43.12641 23.80799 35030 ft 457 kts 181°
2026-04-26 10:39 43.06282 23.80884 35029 ft 457 kts 181°
2026-04-26 10:39 42.99961 23.80976 35039 ft 457 kts 181°
2026-04-26 10:40 42.93588 23.81062 35034 ft 458 kts 181°
2026-04-26 10:40 42.87214 23.81140 35047 ft 458 kts 181°
2026-04-26 10:41 42.80841 23.81217 35043 ft 458 kts 181°
2026-04-26 10:41 42.74463 23.81291 35046 ft 458 kts 181°
2026-04-26 10:42 42.69165 23.81358 35046 ft 459 kts 180°
2026-04-26 10:42 42.64923 23.82019 35044 ft 460 kts 167°
2026-04-26 10:42 42.61822 23.83085 35035 ft 460 kts 166°
2026-04-26 10:43 42.55610 23.85238 35029 ft 461 kts 166°
2026-04-26 10:43 42.49438 23.87357 35031 ft 461 kts 166°
2026-04-26 10:44 42.43231 23.89490 35030 ft 461 kts 166°
2026-04-26 10:44 42.37016 23.91622 35028 ft 460 kts 166°
2026-04-26 10:45 42.30810 23.93741 35023 ft 460 kts 166°
2026-04-26 10:45 42.24535 23.95483 35022 ft 460 kts 170°
2026-04-26 10:46 42.18215 23.96898 35017 ft 461 kts 171°
2026-04-26 10:46 42.12970 23.98072 35019 ft 460 kts 170°
2026-04-26 10:47 42.06660 23.99575 35011 ft 460 kts 169°
2026-04-26 10:47 42.00367 24.01126 35009 ft 460 kts 169°
2026-04-26 10:48 41.94069 24.02677 35010 ft 460 kts 169°
2026-04-26 10:48 41.87778 24.04202 35007 ft 459 kts 169°
2026-04-26 10:49 41.81489 24.05719 35005 ft 459 kts 169°
2026-04-26 10:49 41.75205 24.07228 35005 ft 458 kts 169°
2026-04-26 10:50 41.68973 24.08716 34998 ft 458 kts 168°
2026-04-26 10:50 41.62706 24.10226 34994 ft 458 kts 168°
2026-04-26 10:51 41.53543 24.13474 34989 ft 453 kts 151°
2026-04-26 10:52 41.48229 24.17925 34984 ft 451 kts 143°
2026-04-26 10:52 41.43026 24.22576 34992 ft 450 kts 144°
2026-04-26 10:53 41.37813 24.27201 35008 ft 450 kts 144°
2026-04-26 10:53 41.32610 24.31815 35012 ft 449 kts 143°
2026-04-26 10:54 41.24849 24.38705 35013 ft 448 kts 144°
2026-04-26 10:54 41.19632 24.43261 35018 ft 449 kts 148°
2026-04-26 10:55 41.14017 24.46944 35017 ft 450 kts 152°
2026-04-26 10:55 41.08377 24.50547 35015 ft 450 kts 152°
2026-04-26 10:56 41.02749 24.54153 35014 ft 449 kts 152°
2026-04-26 10:56 40.97129 24.57746 35000 ft 449 kts 152°
2026-04-26 10:57 40.91507 24.61318 35001 ft 448 kts 152°
2026-04-26 10:57 40.85895 24.64884 34993 ft 447 kts 152°
2026-04-26 10:58 40.80283 24.68451 35007 ft 448 kts 152°
2026-04-26 10:58 40.74713 24.71973 35019 ft 446 kts 152°
2026-04-26 10:59 40.69115 24.75523 35017 ft 446 kts 152°
2026-04-26 10:59 40.63535 24.79061 35021 ft 446 kts 152°
2026-04-26 11:00 40.57947 24.82586 35038 ft 445 kts 152°
2026-04-26 11:00 40.52366 24.86105 35036 ft 444 kts 152°
2026-04-26 11:01 40.46792 24.89617 35038 ft 444 kts 152°
2026-04-26 11:01 40.41225 24.93099 35042 ft 443 kts 152°
2026-04-26 11:02 40.35659 24.96571 35032 ft 443 kts 152°
2026-04-26 11:02 40.30094 25.00048 35032 ft 443 kts 152°
2026-04-26 11:03 40.24569 25.03492 35034 ft 443 kts 152°
2026-04-26 11:03 40.19016 25.06957 35036 ft 442 kts 152°
2026-04-26 11:04 40.13458 25.10419 35033 ft 442 kts 152°
2026-04-26 11:04 40.07897 25.13855 35034 ft 442 kts 152°
2026-04-26 11:05 40.02343 25.17288 35023 ft 442 kts 152°
2026-04-26 11:05 39.96789 25.20722 35021 ft 442 kts 152°
2026-04-26 11:06 39.91188 25.24016 35012 ft 443 kts 159°
2026-04-26 11:06 39.85295 25.26440 35019 ft 444 kts 160°
2026-04-26 11:07 39.79437 25.28839 35020 ft 444 kts 160°
2026-04-26 11:07 39.73540 25.31257 35029 ft 445 kts 160°
2026-04-26 11:08 39.67636 25.33667 35034 ft 444 kts 160°
2026-04-26 11:08 39.61739 25.36073 35042 ft 444 kts 160°
2026-04-26 11:09 39.55842 25.38478 35045 ft 444 kts 160°
2026-04-26 11:09 39.49948 25.40870 35051 ft 444 kts 160°
2026-04-26 11:10 39.44061 25.43247 35047 ft 443 kts 160°
2026-04-26 11:10 39.38181 25.45628 35042 ft 443 kts 160°
2026-04-26 11:11 39.32300 25.48001 35042 ft 443 kts 160°
2026-04-26 11:11 39.26420 25.50381 35049 ft 443 kts 160°
2026-04-26 11:12 39.20550 25.52750 35043 ft 442 kts 160°
2026-04-26 11:12 39.14682 25.55100 35039 ft 442 kts 160°
2026-04-26 11:13 39.08812 25.57453 35037 ft 442 kts 160°
2026-04-26 11:13 39.02947 25.59811 35043 ft 441 kts 160°
2026-04-26 11:14 38.97087 25.62157 35042 ft 441 kts 160°
2026-04-26 11:14 38.91263 25.64476 35041 ft 441 kts 160°
2026-04-26 11:15 38.85409 25.66811 35037 ft 441 kts 160°
2026-04-26 11:15 38.79553 25.69140 35033 ft 440 kts 160°
2026-04-26 11:16 38.73704 25.71458 35025 ft 440 kts 160°
2026-04-26 11:16 38.67850 25.73775 35023 ft 440 kts 160°
2026-04-26 11:17 38.61997 25.76089 35017 ft 441 kts 160°
2026-04-26 11:17 38.56137 25.78405 35019 ft 441 kts 161°
2026-04-26 11:18 38.50275 25.80722 35011 ft 441 kts 161°
2026-04-26 11:18 38.44441 25.83021 35008 ft 442 kts 161°
2026-04-26 11:19 38.38564 25.85316 35000 ft 442 kts 161°
2026-04-26 11:19 38.32681 25.87618 35002 ft 442 kts 161°
2026-04-26 11:20 38.27792 25.89537 34996 ft 443 kts 162°
2026-04-26 11:20 38.20944 25.92363 34998 ft 443 kts 159°
2026-04-26 11:21 38.15159 25.95052 34994 ft 443 kts 159°
2026-04-26 11:21 38.09382 25.97766 35006 ft 443 kts 159°
2026-04-26 11:22 38.03588 26.00425 35001 ft 443 kts 160°
2026-04-26 11:22 37.97789 26.03051 35005 ft 443 kts 160°
2026-04-26 11:23 37.92027 26.05659 35008 ft 443 kts 160°
2026-04-26 11:23 37.89124 26.06975 34897 ft 444 kts 157°
2026-04-26 11:23 37.86211 26.08295 35017 ft 446 kts 158°
2026-04-26 11:24 37.80296 26.10972 35003 ft 457 kts 158°
2026-04-26 11:24 37.74279 26.13682 35008 ft 460 kts 158°
2026-04-26 11:25 37.68249 26.16400 35004 ft 460 kts 158°
2026-04-26 11:25 37.62223 26.19114 35001 ft 460 kts 158°
2026-04-26 11:26 37.56197 26.21817 35003 ft 460 kts 158°
2026-04-26 11:26 37.50172 26.24509 34999 ft 459 kts 158°
2026-04-26 11:27 37.44185 26.27171 35003 ft 459 kts 158°
2026-04-26 11:27 37.38159 26.29858 34999 ft 459 kts 157°
2026-04-26 11:28 37.32138 26.32551 34996 ft 460 kts 157°
2026-04-26 11:28 37.26111 26.35235 34999 ft 459 kts 158°
2026-04-26 11:29 37.20082 26.37913 34992 ft 460 kts 157°
2026-04-26 11:29 37.14049 26.40584 34994 ft 460 kts 157°
2026-04-26 11:30 37.09034 26.42800 34998 ft 460 kts 157°
2026-04-26 11:30 37.01973 26.45919 35000 ft 460 kts 158°
2026-04-26 11:31 36.95929 26.48584 35004 ft 460 kts 157°
2026-04-26 11:31 36.89889 26.51253 35002 ft 460 kts 157°
2026-04-26 11:32 36.83850 26.53925 35001 ft 460 kts 157°
2026-04-26 11:32 36.77803 26.56577 35001 ft 461 kts 158°
2026-04-26 11:33 36.71796 26.59194 35003 ft 460 kts 158°
2026-04-26 11:33 36.65749 26.61834 35000 ft 460 kts 158°
2026-04-26 11:34 36.59708 26.64475 34999 ft 460 kts 158°
2026-04-26 11:34 36.53678 26.67114 34995 ft 460 kts 158°
2026-04-26 11:35 36.47634 26.69741 34998 ft 460 kts 158°
2026-04-26 11:35 36.42576 26.71930 34994 ft 459 kts 158°
2026-04-26 11:36 36.35561 26.74960 34993 ft 459 kts 158°
2026-04-26 11:36 36.29531 26.77565 34984 ft 459 kts 158°
2026-04-26 11:37 36.23502 26.80167 34975 ft 459 kts 158°
2026-04-26 11:37 36.17482 26.82772 34973 ft 458 kts 158°
2026-04-26 11:38 36.11458 26.85372 34972 ft 458 kts 159°
2026-04-26 11:38 36.05429 26.87966 34976 ft 459 kts 159°
2026-04-26 11:39 35.99407 26.90551 34980 ft 458 kts 159°
2026-04-26 11:39 35.93380 26.93129 34978 ft 458 kts 159°
2026-04-26 11:40 35.87393 26.95677 34981 ft 458 kts 159°
2026-04-26 11:40 35.81371 26.98251 34979 ft 458 kts 159°
2026-04-26 11:42 35.57217 27.08398 34964 ft 458 kts 160°
2026-04-26 11:43 35.51188 27.10922 34955 ft 458 kts 160°
2026-04-26 11:43 35.45151 27.13457 34954 ft 458 kts 159°
2026-04-26 11:44 35.39604 27.17181 34948 ft 455 kts 140°
2026-04-26 11:44 35.34640 27.21991 34953 ft 455 kts 140°
2026-04-26 11:45 35.29670 27.26775 34954 ft 455 kts 141°
2026-04-26 11:45 35.24725 27.31522 34957 ft 455 kts 141°
2026-04-26 11:46 35.19746 27.36301 34960 ft 455 kts 141°
2026-04-26 11:46 35.15572 27.40302 34963 ft 455 kts 141°
2026-04-26 11:47 35.10587 27.45082 34968 ft 455 kts 141°
2026-04-26 11:47 35.05633 27.49818 34969 ft 456 kts 141°
2026-04-26 11:48 35.00632 27.54584 34968 ft 456 kts 141°
2026-04-26 11:48 34.95626 27.59340 34963 ft 457 kts 142°
2026-04-26 11:49 34.90612 27.64100 34960 ft 457 kts 142°
2026-04-26 11:49 34.85590 27.68858 34960 ft 458 kts 142°
2026-04-26 11:50 34.80550 27.73614 34961 ft 459 kts 142°
2026-04-26 11:50 34.75505 27.78364 34961 ft 459 kts 142°
2026-04-26 11:51 34.70461 27.83116 34958 ft 458 kts 142°
2026-04-26 11:51 34.65427 27.87867 34959 ft 458 kts 142°
2026-04-26 11:52 34.60386 27.92608 34950 ft 458 kts 143°
2026-04-26 11:52 34.55343 27.97330 34946 ft 458 kts 143°
2026-04-26 11:53 34.50290 28.02061 34948 ft 459 kts 143°
2026-04-26 11:54 34.42705 28.09146 34948 ft 459 kts 143°
2026-04-26 11:54 34.37678 28.13828 34946 ft 459 kts 143°
2026-04-26 11:55 34.32620 28.18540 34948 ft 459 kts 143°
2026-04-26 11:55 34.27557 28.23250 34953 ft 459 kts 144°
2026-04-26 11:56 34.22498 28.27953 34951 ft 459 kts 144°
2026-04-26 11:56 34.17431 28.32652 34949 ft 459 kts 144°
2026-04-26 11:57 34.12366 28.37343 34946 ft 460 kts 144°
2026-04-26 11:57 34.07286 28.42029 34947 ft 459 kts 144°
2026-04-26 11:58 34.02213 28.46708 34941 ft 459 kts 144°
2026-04-26 11:58 33.97135 28.51391 34941 ft 459 kts 144°
2026-04-26 11:59 33.92067 28.56069 34944 ft 460 kts 144°
2026-04-26 11:59 33.87016 28.60712 34948 ft 460 kts 145°
2026-04-26 12:00 33.81929 28.65371 34943 ft 459 kts 145°
2026-04-26 12:00 33.76839 28.70019 34941 ft 459 kts 145°
2026-04-26 12:01 33.71754 28.74671 34942 ft 460 kts 143°
2026-04-26 12:01 33.67043 28.79900 34933 ft 461 kts 139°
2026-04-26 12:02 33.62360 28.85160 34939 ft 461 kts 139°
2026-04-26 12:02 33.57668 28.90410 34936 ft 461 kts 140°
2026-04-26 12:03 33.52978 28.95646 34937 ft 461 kts 140°
2026-04-26 12:03 33.48316 29.00859 34939 ft 461 kts 140°
2026-04-26 12:04 33.43632 29.06100 34935 ft 461 kts 140°
2026-04-26 12:04 33.38938 29.11327 34937 ft 461 kts 140°
2026-04-26 12:05 33.34241 29.16544 34933 ft 461 kts 140°
2026-04-26 12:05 33.29543 29.21759 34934 ft 461 kts 140°
2026-04-26 12:06 33.24844 29.26975 34934 ft 461 kts 140°
2026-04-26 12:06 33.20143 29.32189 34934 ft 461 kts 140°
2026-04-26 12:07 33.15445 29.37392 34933 ft 461 kts 141°
2026-04-26 12:07 33.10732 29.42586 34937 ft 461 kts 141°
2026-04-26 12:08 33.06010 29.47768 34935 ft 461 kts 141°
2026-04-26 12:08 33.01328 29.52932 34938 ft 462 kts 141°
2026-04-26 12:09 32.96620 29.58128 34942 ft 462 kts 141°
2026-04-26 12:09 32.91898 29.63317 34939 ft 462 kts 142°
2026-04-26 12:10 32.87159 29.68486 34951 ft 462 kts 142°
2026-04-26 12:10 32.82420 29.73661 34957 ft 462 kts 142°
2026-04-26 12:11 32.77684 29.78840 34950 ft 463 kts 142°
2026-04-26 12:11 32.72938 29.84024 34951 ft 464 kts 142°
2026-04-26 12:12 32.68182 29.89207 34951 ft 465 kts 143°
2026-04-26 12:12 32.63443 29.94357 34953 ft 465 kts 143°
2026-04-26 12:13 32.58666 29.99546 34954 ft 466 kts 143°
2026-04-26 12:13 32.53871 30.04740 34964 ft 467 kts 143°
2026-04-26 12:14 32.49069 30.09937 34962 ft 468 kts 143°
2026-04-26 12:14 32.44257 30.15125 34969 ft 468 kts 144°
2026-04-26 12:15 32.39437 30.20322 34969 ft 469 kts 144°
2026-04-26 12:15 32.34612 30.25519 34969 ft 469 kts 144°
2026-04-26 12:16 32.29776 30.30710 34963 ft 470 kts 144°
2026-04-26 12:16 32.24939 30.35900 34964 ft 470 kts 144°
2026-04-26 12:17 32.20121 30.41063 34972 ft 470 kts 144°
2026-04-26 12:17 32.15269 30.46244 34968 ft 471 kts 144°
2026-04-26 12:18 32.10409 30.51424 34970 ft 471 kts 144°
2026-04-26 12:18 32.05541 30.56597 34972 ft 471 kts 144°
2026-04-26 12:19 32.00675 30.61781 34966 ft 472 kts 144°
2026-04-26 12:19 31.95814 30.66968 34962 ft 472 kts 145°
2026-04-26 12:20 31.90941 30.72144 34960 ft 472 kts 145°
2026-04-26 12:20 31.86061 30.77304 34961 ft 472 kts 145°
2026-04-26 12:21 31.81214 30.82429 34957 ft 472 kts 145°
2026-04-26 12:21 31.76330 30.87583 34960 ft 472 kts 145°
2026-04-26 12:22 31.71440 30.92737 34959 ft 473 kts 145°
2026-04-26 12:22 31.66547 30.97893 34960 ft 473 kts 146°
2026-04-26 12:23 31.61649 31.03050 34969 ft 473 kts 146°
2026-04-26 12:23 31.56744 31.08185 34963 ft 471 kts 149°
2026-04-26 12:23 31.54107 31.10374 34957 ft 459 kts 159°
2026-04-26 12:24 31.51271 31.12000 34950 ft 448 kts 168°
2026-04-26 12:24 31.45352 31.13650 34942 ft 433 kts 180°
2026-04-26 12:25 31.36415 31.15325 34941 ft 434 kts 180°
2026-04-26 12:25 31.30466 31.16456 34944 ft 433 kts 180°
2026-04-26 12:26 31.24511 31.17570 34944 ft 433 kts 180°
2026-04-26 12:26 31.18603 31.18663 34948 ft 433 kts 180°
2026-04-26 12:27 31.12650 31.19769 34954 ft 433 kts 180°
2026-04-26 12:27 31.06698 31.20878 34953 ft 433 kts 180°
2026-04-26 12:28 31.00745 31.21989 34948 ft 433 kts 181°
2026-04-26 12:28 30.94797 31.23091 34956 ft 433 kts 181°
2026-04-26 12:29 30.88840 31.24195 34958 ft 433 kts 181°
2026-04-26 12:30 30.79910 31.25846 34952 ft 433 kts 181°
2026-04-26 12:30 30.73968 31.26947 34958 ft 433 kts 181°
2026-04-26 12:31 30.65041 31.28591 34954 ft 433 kts 181°
2026-04-26 12:31 30.59092 31.29683 34975 ft 433 kts 181°
2026-04-26 12:32 30.53181 31.30776 34974 ft 433 kts 181°
2026-04-26 12:33 30.44246 31.32428 34979 ft 433 kts 182°
2026-04-26 12:33 30.38290 31.33517 34980 ft 433 kts 182°
2026-04-26 12:34 30.32332 31.34602 34985 ft 434 kts 182°
2026-04-26 12:34 30.26370 31.35698 34982 ft 434 kts 182°
2026-04-26 12:35 30.20416 31.36795 34980 ft 434 kts 182°
2026-04-26 12:35 30.14455 31.37885 34977 ft 434 kts 182°
2026-04-26 12:36 30.08536 31.39811 34967 ft 460 kts 164°
2026-04-26 12:36 30.05799 31.41742 34955 ft 476 kts 153°
2026-04-26 12:36 30.03139 31.44039 34951 ft 477 kts 153°
2026-04-26 12:37 29.97810 31.48613 34950 ft 478 kts 154°
2026-04-26 12:37 29.92464 31.53165 34957 ft 478 kts 154°
2026-04-26 12:38 29.87107 31.57716 34963 ft 479 kts 154°
2026-04-26 12:38 29.81749 31.62271 34973 ft 479 kts 154°
2026-04-26 12:39 29.76385 31.66830 34980 ft 479 kts 154°
2026-04-26 12:39 29.71016 31.71397 34978 ft 480 kts 154°
2026-04-26 12:40 29.65639 31.75955 34986 ft 481 kts 154°
2026-04-26 12:40 29.60284 31.80483 35003 ft 481 kts 154°
2026-04-26 12:41 29.54895 31.85037 35001 ft 481 kts 154°
2026-04-26 12:41 29.49506 31.89590 34991 ft 481 kts 154°
2026-04-26 12:42 29.44111 31.94125 34982 ft 481 kts 154°
2026-04-26 12:42 29.38711 31.98672 34977 ft 482 kts 154°
2026-04-26 12:43 29.33307 32.03224 34992 ft 482 kts 154°
2026-04-26 12:43 29.27906 32.07755 34987 ft 481 kts 154°
2026-04-26 12:44 29.22492 32.12282 34988 ft 482 kts 154°
2026-04-26 12:44 29.17113 32.16779 34990 ft 482 kts 154°
2026-04-26 12:45 29.11710 32.21307 34981 ft 482 kts 155°
2026-04-26 12:45 29.06301 32.25822 34970 ft 481 kts 155°
2026-04-26 12:46 29.00886 32.30331 34967 ft 482 kts 155°
2026-04-26 12:46 28.95470 32.34844 34964 ft 482 kts 155°
2026-04-26 12:47 28.90970 32.38601 34976 ft 482 kts 155°
2026-04-26 12:47 28.85564 32.43105 34968 ft 482 kts 155°
2026-04-26 12:48 28.80145 32.47585 34971 ft 481 kts 155°
2026-04-26 12:48 28.74730 32.52061 34963 ft 481 kts 155°
2026-04-26 12:49 28.69308 32.56553 34966 ft 482 kts 155°
2026-04-26 12:49 28.63885 32.61040 34961 ft 482 kts 155°
2026-04-26 12:50 28.58450 32.65528 34953 ft 482 kts 155°
2026-04-26 12:50 28.53013 32.69999 34949 ft 482 kts 155°
2026-04-26 12:51 28.47606 32.74444 34940 ft 483 kts 155°
2026-04-26 12:51 28.42163 32.78914 34931 ft 483 kts 155°
2026-04-26 12:52 28.36718 32.83390 34933 ft 483 kts 155°
2026-04-26 12:52 28.31274 32.87858 34933 ft 483 kts 155°
2026-04-26 12:53 28.25822 32.92326 34923 ft 483 kts 155°
2026-04-26 12:53 28.20369 32.96786 34932 ft 483 kts 155°
2026-04-26 12:54 28.14909 33.01246 34926 ft 484 kts 155°
2026-04-26 12:54 28.09444 33.05696 34926 ft 484 kts 155°
2026-04-26 12:55 28.03972 33.10145 34929 ft 484 kts 155°
2026-04-26 12:55 27.98503 33.14592 34931 ft 485 kts 155°
2026-04-26 12:56 27.93026 33.19049 34927 ft 485 kts 156°
2026-04-26 12:56 27.87546 33.23496 34926 ft 485 kts 156°
2026-04-26 12:57 27.82100 33.27915 34922 ft 485 kts 156°
2026-04-26 12:57 27.76615 33.32357 34911 ft 486 kts 156°
2026-04-26 12:58 27.68369 33.39018 34907 ft 486 kts 156°
2026-04-26 12:58 27.62870 33.43456 34922 ft 486 kts 156°
2026-04-26 12:59 27.57365 33.47885 34917 ft 486 kts 156°
2026-04-26 12:59 27.51860 33.52314 34908 ft 486 kts 156°
2026-04-26 13:00 27.46355 33.56746 34907 ft 486 kts 156°
2026-04-26 13:00 27.40844 33.61172 34908 ft 487 kts 156°
2026-04-26 13:01 27.35328 33.65587 34915 ft 487 kts 156°
2026-04-26 13:01 27.29812 33.70003 34919 ft 487 kts 156°
2026-04-26 13:02 27.24297 33.74418 34922 ft 487 kts 156°
2026-04-26 13:02 27.18786 33.78837 34927 ft 489 kts 154°
2026-04-26 13:03 27.16222 33.81354 34924 ft 503 kts 146°
2026-04-26 13:03 27.13748 33.84142 34927 ft 504 kts 146°
2026-04-26 13:03 27.08801 33.89707 34922 ft 504 kts 146°
2026-04-26 13:04 27.03843 33.95252 34889 ft 503 kts 146°
2026-04-26 13:04 27.01372 33.98012 34654 ft 499 kts 146°
2026-04-26 13:04 26.98924 34.00750 34427 ft 497 kts 146°
2026-04-26 13:05 26.96482 34.03482 34126 ft 494 kts 146°
2026-04-26 13:05 26.94048 34.06201 33457 ft 494 kts 146°
2026-04-26 13:05 26.91619 34.08908 32867 ft 491 kts 146°
2026-04-26 13:05 26.89208 34.11592 32275 ft 488 kts 145°
2026-04-26 13:06 26.86804 34.14260 31693 ft 484 kts 146°
2026-04-26 13:06 26.84246 34.16589 31164 ft 465 kts 157°
2026-04-26 13:06 26.81470 34.18283 30658 ft 445 kts 167°
2026-04-26 13:06 26.78600 34.19363 30172 ft 429 kts 175°
2026-04-26 13:07 26.75729 34.20244 29647 ft 425 kts 174°
2026-04-26 13:07 26.72899 34.21123 29171 ft 419 kts 174°
2026-04-26 13:07 26.70107 34.21999 28718 ft 413 kts 174°
2026-04-26 13:07 26.67361 34.22861 28272 ft 407 kts 174°
2026-04-26 13:08 26.64652 34.23711 27832 ft 402 kts 174°
2026-04-26 13:08 26.61973 34.24548 27384 ft 397 kts 173°
2026-04-26 13:08 26.59324 34.25374 26929 ft 393 kts 173°
2026-04-26 13:08 26.56698 34.26192 26478 ft 390 kts 173°
2026-04-26 13:09 26.54098 34.27000 26018 ft 387 kts 173°
2026-04-26 13:09 26.51551 34.27790 25550 ft 384 kts 173°
2026-04-26 13:09 26.48983 34.28585 25081 ft 382 kts 173°
2026-04-26 13:09 26.46430 34.29374 24578 ft 380 kts 173°
2026-04-26 13:10 26.43882 34.30160 24071 ft 379 kts 172°
2026-04-26 13:10 26.41343 34.30946 23564 ft 379 kts 172°
2026-04-26 13:10 26.38807 34.31732 22976 ft 378 kts 172°
2026-04-26 13:10 26.36284 34.32515 22474 ft 375 kts 172°
2026-04-26 13:11 26.33783 34.33293 21974 ft 372 kts 172°
2026-04-26 13:11 26.31299 34.34064 21477 ft 370 kts 171°
2026-04-26 13:11 26.28829 34.34831 20974 ft 367 kts 171°
2026-04-26 13:11 26.26371 34.35593 20477 ft 365 kts 171°
2026-04-26 13:12 26.23934 34.36346 19992 ft 363 kts 171°
2026-04-26 13:12 26.21512 34.37095 19593 ft 358 kts 171°
2026-04-26 13:12 26.19108 34.37838 19113 ft 357 kts 171°
2026-04-26 13:12 26.16738 34.38576 18764 ft 351 kts 171°
2026-04-26 13:13 26.14389 34.39305 18316 ft 350 kts 171°
2026-04-26 13:13 26.12049 34.40028 17846 ft 348 kts 171°
2026-04-26 13:13 26.09724 34.40743 17360 ft 346 kts 170°
2026-04-26 13:13 26.07408 34.41454 16877 ft 345 kts 170°
2026-04-26 13:14 26.05112 34.42160 16273 ft 341 kts 170°
2026-04-26 13:14 26.02846 34.42861 15689 ft 334 kts 170°
2026-04-26 13:14 26.00637 34.43423 15257 ft 316 kts 182°
2026-04-26 13:14 25.98528 34.43200 14854 ft 297 kts 202°
2026-04-26 13:15 25.96679 34.42194 14429 ft 295 kts 221°
2026-04-26 13:15 25.95160 34.40681 14015 ft 293 kts 226°
2026-04-26 13:15 25.93672 34.39136 13587 ft 293 kts 226°
2026-04-26 13:15 25.92682 34.38114 13284 ft 294 kts 225°
2026-04-26 13:16 25.90367 34.36470 12644 ft 301 kts 206°
2026-04-26 13:16 25.88302 34.35826 11933 ft 309 kts 197°
2026-04-26 13:16 25.86275 34.35321 11440 ft 299 kts 197°
2026-04-26 13:16 25.84257 34.34817 10754 ft 297 kts 197°
2026-04-26 13:17 25.80242 34.33801 9337 ft 294 kts 197°
2026-04-26 13:17 25.78261 34.33295 8658 ft 290 kts 195°
2026-04-26 13:18 25.74515 34.34283 7446 ft 293 kts 135°
2026-04-26 13:18 25.73516 34.36224 6839 ft 293 kts 107°
2026-04-26 13:18 25.72980 34.40631 5641 ft 284 kts 95°
2026-04-26 13:19 25.72799 34.42792 5074 ft 278 kts 97°
2026-04-26 13:19 25.72544 34.44884 4592 ft 270 kts 100°
2026-04-26 13:19 25.72153 34.46881 4101 ft 260 kts 115°
2026-04-26 13:19 25.71126 34.48410 3635 ft 239 kts 145°
2026-04-26 13:20 25.69761 34.49326 3191 ft 221 kts 150°
2026-04-26 13:20 25.68478 34.50141 2836 ft 205 kts 149°
2026-04-26 13:20 25.67291 34.50897 2597 ft 189 kts 148°
2026-04-26 13:20 25.66177 34.51611 2319 ft 181 kts 148°
2026-04-26 13:21 25.65121 34.52288 2047 ft 173 kts 149°
2026-04-26 13:21 25.64430 34.52722 1853 ft 165 kts 149°
2026-04-26 13:21 25.63151 34.53525 1505 ft 154 kts 147°
2026-04-26 13:21 25.62248 34.54118 1229 ft 146 kts 145°
2026-04-26 13:22 25.61421 34.54691 1123 ft 139 kts 145°
2026-04-26 13:22 25.60612 34.55253 947 ft 135 kts 145°
2026-04-26 13:22 25.59809 34.55785 763 ft 134 kts 148°
2026-04-26 13:22 25.58991 34.56307 646 ft 136 kts 150°
2026-04-26 13:23 25.58169 34.56825 488 ft 135 kts 149°
2026-04-26 13:23 25.57358 34.57338 355 ft 133 kts 149°
2026-04-26 13:23 25.56570 34.57833 262 ft 127 kts 147°
2026-04-26 13:23 25.56012 34.58192 261 ft 50 kts 150°
2026-04-26 13:24 25.55788 34.58335 261 ft 34 kts 151°
2026-04-26 13:24 25.55591 34.58460 260 ft 28 kts 148°
2026-04-26 13:24 25.55486 34.58566 257 ft 15 kts 65°
2026-04-26 13:24 25.55541 34.58674 255 ft 18 kts 60°
2026-04-26 13:25 25.55584 34.58757 251 ft 14 kts 60°
2026-04-26 13:25 25.55639 34.58875 242 ft 14 kts 93°
2026-04-26 13:25 25.55581 34.58923 242 ft 11 kts 150°
2026-04-26 13:25 25.55524 34.58964 242 ft 8 kts 123°
2026-04-26 13:26 25.55541 34.58998 242 ft 3 kts 54°
2026-04-26 13:26 25.55549 34.59014 242 ft 2 kts 59°
2026-04-26 13:26 25.55554 34.59023 242 ft 1 kts 59°
2026-04-26 13:26 25.55556 34.59026 242 ft 0 kts 59°